Weather History for KORH - October, 2012

Change the Weather History Date:

Tuesday, October 9, 2012

  Actual Average Record
Temperature  
Mean Temperature 49 °F 52 °F  
Max Temperature 52 °F 61 °F 84 °F (1932)
Min Temperature 45 °F 44 °F 22 °F (1929)
Degree Days  
Heating Degree Days 16 13  
Month to date heating degree days 82 103  
Since 1 July heating degree days 218 296  
Cooling Degree Days 0 0  
Month to date cooling degree days 0 0  
Year to date cooling degree days 674 468  
Moisture  
Dew Point 45 °F    
Average Humidity 92    
Maximum Humidity 100    
Minimum Humidity 83    
Precipitation  
Precipitation T in 0.16 in 2.09 in (1977)
Month to date precipitation 0.42 1.42  
Year to date precipitation 33.84 36.71  
Snow  
Snow 0.00 in 0.00 in 0.00 in (2013)
Month to date snowfall 0.0 0.0  
Since 1 July snowfall 0.0 0.0  
Since 1 September snowfall 0.0 0.0  
Snow Depth -    
Sea Level Pressure  
Sea Level Pressure 30.22 in    
Wind  
Wind Speed 7 mph (NE)    
Max Wind Speed 13 mph    
Max Gust Speed 18 mph    
Visibility 9 miles    
Events Rain    
T = Trace of Precipitation, MM = Missing Value Source: NWS Daily Summary

Daily Weather History Graph

Daily Weather History Graph

Search for Another Location

Airport or City:

Trip Planner

Search our weather history database for the weather conditions in past years. The results will help you decide how hot, cold, wet, or windy it might be!

Date:

Astronomy

Oct. 09, 2012 Rise Set
Actual Time 6:53 AM EDT 6:14 PM EDT
Civil Twilight 6:25 AM EDT 6:42 PM EDT
Nautical Twilight 5:53 AM EDT 7:15 PM EDT
Astronomical Twilight 5:20 AM EDT 7:47 PM EDT
Moon 12:20 AM EDT (10/9) 2:46 PM EDT (10/9)
Length of Visible Light 12h 16m
Length of Day
11h 20m
Last Quarter, 37% of the Moon is Illuminated
Oct 9
Last Quarter
Oct 15
New
Oct 21
First Quarter
Oct 29
Full
Nov 6
Last Quarter

Hourly Weather History & Observations

Time (EDT) Temp. Windchill Dew Point Humidity Pressure Visibility Wind Dir Wind Speed Gust Speed Precip Events Conditions
12:54 AM 46.0 °F 44.8 °F 44.1 °F 93% 30.30 in 10.0 mi NE 3.5 mph - N/A   Overcast
1:54 AM 46.0 °F 44.8 °F 43.0 °F 89% 30.31 in 10.0 mi NNE 3.5 mph - N/A   Overcast
3:54 AM 46.0 °F 43.9 °F 43.0 °F 89% 30.27 in 10.0 mi NE 4.6 mph - N/A   Partly Cloudy
4:33 AM 46.4 °F 43.5 °F 42.8 °F 87% 30.25 in 10.0 mi NNE 5.8 mph - N/A   Mostly Cloudy
4:54 AM 46.0 °F 44.8 °F 42.1 °F 86% 30.27 in 10.0 mi NE 3.5 mph - N/A   Overcast
5:11 AM 44.6 °F 42.2 °F 42.8 °F 93% 30.25 in 10.0 mi NNE 4.6 mph - N/A   Scattered Clouds
5:54 AM 45.0 °F 41.8 °F 42.1 °F 90% 30.27 in 10.0 mi NNE 5.8 mph - N/A   Scattered Clouds
6:03 AM 44.6 °F 40.7 °F 42.8 °F 93% 30.25 in 10.0 mi NNE 6.9 mph - N/A   Mostly Cloudy
6:54 AM 46.0 °F 43.1 °F 43.0 °F 89% 30.27 in 10.0 mi NNE 5.8 mph - N/A   Overcast
7:44 AM 46.4 °F 44.3 °F 42.8 °F 87% 30.26 in 10.0 mi NNE 4.6 mph - N/A   Overcast
7:54 AM 46.0 °F 42.5 °F 43.0 °F 89% 30.28 in 10.0 mi NNE 6.9 mph - 0.00 in   Overcast
8:25 AM 46.4 °F 43.5 °F 44.6 °F 93% 30.26 in 3.0 mi NE 5.8 mph - 0.00 in Rain Light Rain
8:54 AM 46.0 °F 43.9 °F 45.0 °F 96% 30.28 in 6.0 mi NE 4.6 mph - 0.00 in   Overcast
9:01 AM 46.4 °F 42.9 °F 44.6 °F 93% 30.26 in 2.0 mi North 6.9 mph - N/A   Overcast
9:54 AM 46.9 °F - 46.0 °F 97% 30.28 in 7.0 mi ENE 5.8 mph - N/A   Unknown
10:10 AM 48.2 °F - 46.4 °F 93% 30.25 in 8.0 mi NE 9.2 mph - N/A   Overcast
10:54 AM 48.0 °F - 46.9 °F 96% 30.27 in 5.0 mi NE 5.8 mph - N/A   Overcast
11:54 AM 50.0 °F - 48.0 °F 93% 30.25 in 10.0 mi ENE 9.2 mph - N/A   Overcast
12:33 PM 50.0 °F - 48.2 °F 94% 30.22 in 10.0 mi NE 6.9 mph - N/A   Overcast
1:24 PM 51.8 °F - 46.4 °F 82% 30.21 in 10.0 mi NE 8.1 mph - N/A   Overcast
1:32 PM 51.8 °F - 46.4 °F 82% 30.21 in 10.0 mi NE 8.1 mph - N/A   Overcast
1:54 PM 51.1 °F - 46.0 °F 83% 30.22 in 10.0 mi NE 8.1 mph - N/A   Overcast
2:19 PM 51.8 °F - 46.4 °F 82% 30.20 in 10.0 mi NE 8.1 mph - N/A   Overcast
2:54 PM 52.0 °F - 46.0 °F 80% 30.20 in 10.0 mi NE 9.2 mph - N/A   Overcast
3:27 PM 51.8 °F - 46.4 °F 82% 30.18 in 10.0 mi ENE 10.4 mph - N/A   Overcast
3:49 PM 51.8 °F - 46.4 °F 82% 30.18 in 10.0 mi ENE 10.4 mph - N/A   Overcast
3:54 PM 51.1 °F - 46.9 °F 86% 30.19 in 10.0 mi ENE 8.1 mph - N/A   Overcast
4:18 PM 51.8 °F - 46.4 °F 82% 30.17 in 10.0 mi ENE 9.2 mph - N/A   Overcast
4:54 PM 51.1 °F - 46.0 °F 83% 30.19 in 10.0 mi ENE 11.5 mph 18.4 mph N/A   Overcast
5:11 PM 50.0 °F - 46.4 °F 87% 30.18 in 10.0 mi ENE 8.1 mph 16.1 mph N/A   Overcast
5:54 PM 50.0 °F - 46.0 °F 86% 30.19 in 10.0 mi ENE 8.1 mph - N/A   Mostly Cloudy
6:54 PM 50.0 °F - 46.0 °F 86% 30.19 in 10.0 mi ENE 6.9 mph - N/A   Overcast
7:01 PM 50.0 °F - 46.4 °F 87% 30.17 in 10.0 mi ENE 9.2 mph - N/A   Overcast
7:20 PM 50.0 °F - 46.4 °F 87% 30.17 in 10.0 mi ENE 6.9 mph - N/A   Overcast
7:54 PM 50.0 °F - 46.0 °F 86% 30.18 in 10.0 mi NE 8.1 mph - N/A   Overcast
8:01 PM 50.0 °F - 46.4 °F 87% 30.16 in 10.0 mi ENE 6.9 mph - N/A   Overcast
8:54 PM 48.9 °F - 45.0 °F 86% 30.18 in 10.0 mi ENE 9.2 mph - N/A   Overcast
9:54 PM 48.9 °F - 44.1 °F 83% 30.18 in 10.0 mi ENE 8.1 mph - N/A   Overcast
10:36 PM 48.2 °F - 44.6 °F 87% 30.14 in 10.0 mi NE 10.4 mph - N/A   Overcast
10:54 PM 48.0 °F - 44.1 °F 86% 30.15 in 10.0 mi NE 8.1 mph - N/A   Overcast
11:54 PM 48.0 °F - 44.1 °F 86% 30.15 in 10.0 mi NE 4.6 mph - N/A   Mostly Cloudy